Location: Big Prairie
(40.6673°N, 82.0952°W)
Time: 09:43:39
(UTC+00:00)

Meteor 1-26 Rocket - Pass Details

Date: 03 July 2022
Orbit: 810 x 924 km, 81.3° (Epoch: 14 August)

Event Time Altitude Azimuth Distance (km) Brightness Sun altitude
Rises 07:35:06 0° 340° (NNW) 3,489 8.0 -20.3°
Reaches altitude 10° 07:37:46 10° 330° (NNW) 2,563 7.1 -20.0°
Maximum altitude 07:42:50 32° 270° (W) 1,517 5.2 -19.6°
Enters shadow 07:44:13 28° 245° (WSW) 1,622 5.2 -19.4°
